< < Back
Terminal Aerodrome Forecast


Current Version              Previous Versions:   1  2  3  4  5  6  7  8  9  

Terminal Aerodrome Forecast

675
FTUS44 KBMX 281700
TAFTCL
TAF
KTCL 281720Z 2818/2918 32012G18KT P6SM FEW050
     FM290100 34005KT P6SM SKC
     FM291500 35010KT P6SM SKC=

Latest METAR

509
SAUS70 KWBC 292100 RRC
MTRTCL
METAR KTCL 292053Z 32013G20KT 10SM SCT060 29/13 A3003 RMK AO2 SLP167
T02890133 58006


USA.gov is the U.S. government's official web portal to all federal, state and local government web resources and services.